Weather in Antsalova

Madagascar     18°39′56″S   44°37′51″E
temp.,
°C
wind,
m/s
gust,
m/s
humid.,
%
clouds,
%
prec.,
mm/h
press.,
hPa
HPBL,
m
25 february, thu
thu2500:00+23se019493 0.4 101024
03:00+22se129589 4.9 101025
06:00+22e019191 1.9 101123
09:00+26nne128595 2.4 1012254
12:00+26ne1387100 0.9 1010256
15:00+26e128699 1.2 1008113
18:00+25sse128482 0.5 100848
21:00+23e128660 0.6 101023
26 february, fri
fri2600:00+22e118788 0.1 101023
03:00+22ene139094 0.1 100980
06:00+23e1287100 0.0 100944
09:00+25ese128398 0.0 1010137
12:00+31wnw125862 0.3 10081430
15:00+29ssw127962 3.2 1006442
18:00+25ssw2593100 6.0 1006200
21:00+23se1295100 6.8 100924
27 february, sat
sat2700:00+23ese1295100 0.6 100828
03:00+22se129496 1.8 100728
06:00+22ene129440 4.5 100835
09:00+27ene248133 4.5 1009442
12:00+30nne237146 1.5 10081022
15:00+30w236973 3.3 1006883
18:00+26ssw1292100 3.1 100673
21:00+24se1195100 3.3 100924
28 february, sun
sun2800:00+23ese1194100 0.0 100824
03:00+23ene1292100 0.0 100723
06:00+23ene229099 0.0 100835
09:00+26ne258397 0.0 1009362
12:00+30n237265 2.1 1008902
15:00+29wnw118282 12.3 1005178
18:00+25w1187100 3.4 100626
21:00+23se1195100 3.9 100941
1 march, mon
mon100:00+23ese1196100 4.3 100930
03:00+23nne3794100 10.5 1008210
06:00+21ne279399 0.5 1010215
09:00+27e257887 0.5 1010409
12:00+32ene135976 0.0 10091226
15:00+33wsw025588 0.1 10071750
18:00+25sw389271 1.7 1007258
21:00+23nw119654 3.9 101031